Location: Bouchavesnes-Bergen
(49.9859°N, 2.9203°E)
Time: 12:18:58
(UTC+00:00)

NOAA 16 DEB - Pass Details

Date: 27 September 2021
Orbit: 798 x 841 km, 98.8° (Epoch: 16 October)

Event Time Altitude Azimuth Distance (km) Brightness Sun altitude
Exits shadow 22:53:28 19° 344° (NNW) 1,834 ? -41.1°
Drops below altitude 10° 22:54:54 10° 345° (NNW) 2,389 ? -41.1°
Sets 22:57:14 0° 345° (NNW) 3,321 ? -41.2°
